Overview Statistics Trail Chart Weather Telemetry Raw packets
 

This is the latest recevied weather packets stored in our database for station/object WX5RP. If no packets are shown the sender has not sent any weather packets the latest 10 day(s).

<< 13 14 15 16 17 18 19 >>
Time Temp. Humidity Pressure Rain* Wind** Luminosity Snow
1777778116 15.56° C 45% 1013.8 hPa 0 mm - 0 W/m² -
1777777515 15° C 51% 1014.7 hPa 0 mm - 0 W/m² -
1777776916 15.56° C 46% 1013.4 hPa 0 mm - 4 W/m² -
1777776316 17.22° C 44% 1013.4 hPa 0 mm - 11 W/m² -
1777775717 17.22° C 43% 1013.2 hPa 0 mm - 17 W/m² -
1777775115 17.22° C 38% 1012.8 hPa 0 mm - 24 W/m² -
1777774515 17.78° C 40% 1012.9 hPa 0 mm - 28 W/m² -
1777773915 17.22° C 40% 1014 hPa 0 mm - 41 W/m² -
1777773315 17.78° C 43% 1014 hPa 0 mm - 53 W/m² -
1777772731 17.78° C 41% 1014 hPa 0 mm - 58 W/m² -
1777772115 18.33° C 41% 1013.6 hPa 0 mm - 53 W/m² -
1777771515 18.33° C 43% 1013.7 hPa 0 mm - 66 W/m² -
1777770917 18.33° C 46% 1013.5 hPa 0 mm - 129 W/m² -
1777770318 18.33° C 43% 1014 hPa 0 mm - 193 W/m² -
1777769717 18.89° C 42% 1014.2 hPa 0 mm - 130 W/m² -
1777769117 18.33° C 42% 1014.2 hPa 0 mm - 187 W/m² -
1777768517 18.33° C 43% 1014.6 hPa 0 mm - 163 W/m² -
1777767917 18.89° C 44% 1014.2 hPa 0 mm - 176 W/m² -
1777767317 19.44° C 37% 1014.4 hPa 0 mm - 152 W/m² -
1777766717 19.44° C 36% 1013.6 hPa 0 mm - 218 W/m² -
1777766117 20° C 37% 1013.7 hPa 0 mm - 487 W/m² -
1777765517 20° C 40% 1013.8 hPa 0 mm - 387 W/m² -
1777764917 20.56° C 35% 1013.9 hPa 0 mm - 565 W/m² -
1777764316 20.56° C 35% 1014.1 hPa 0 mm - 591 W/m² -
1777763717 19.44° C 34% 1014.1 hPa 0 mm - 506 W/m² -

* Rain latest hour (hover to see other rain measurements)
** Current wind speed in m/s (hover to see current wind gust speed)